Simultaneous Nadir Overpasses (SNOs) Predictions

Prediction of SNOs between AQUA and METOP-A Satellite Orbit:

Table of predicted SNOs for the next 14.0 days since TLE Epoch: 8/19/2017
Index Date (AQUA) Time (AQUA) Lat,Lon (AQUA) SZA (AQUA ) Date (METOP-A) Time (METOP-A) Lat,Lon (METOP-A) SZA (METOP-A ) Distance(km) Time Diff (sec)
1 08/21/2017 04:47:46 73.80, 102.30 61.77 08/21/2017 04:46:34 73.75, 101.73 61.76 18.71 72
2 08/21/2017 05:37:15 -73.96, -90.43 118.04 08/21/2017 05:37:12 -73.95, -90.45 118.05 1.34 3
3 08/21/2017 06:26:43 74.00, 77.13 62.02 08/21/2017 06:27:50 74.02, 77.05 62.03 3.39 67
4 08/24/2017 00:22:02 73.92, 168.47 62.85 08/24/2017 00:20:50 73.91, 168.53 62.85 1.83 72
5 08/24/2017 01:11:29 -73.98, -24.03 117.08 08/24/2017 01:11:31 -73.97, -24.00 117.09 1.51 2
6 08/24/2017 02:00:57 74.02, 143.53 62.98 08/24/2017 02:02:09 74.04, 143.49 62.99 2.27 72
7 08/26/2017 19:56:17 73.94,-125.14 63.84 08/26/2017 19:55:10 73.92,-125.03 63.83 3.72 67
8 08/26/2017 20:45:44 -74.01, 42.36 116.08 08/26/2017 20:45:51 -73.99, 42.44 116.11 3.37 7
9 08/26/2017 21:35:15 74.20,-150.44 64.14 08/26/2017 21:36:26 74.20,-149.70 64.11 22.49 71
10 08/29/2017 15:30:31 73.92, -58.65 64.80 08/29/2017 15:29:30 73.94, -58.60 64.83 2.64 61
11 08/29/2017 16:19:58 -73.98, 108.85 115.12 08/29/2017 16:20:11 -74.00, 108.88 115.11 2.04 13
12 08/29/2017 17:09:33 74.38, -84.43 65.32 08/29/2017 17:10:42 74.41, -82.76 65.29 50.07 69
13 09/01/2017 11:04:45 73.95, 7.72 65.84 09/01/2017 11:03:49 73.95, 7.84 65.84 3.57 56
14 09/01/2017 11:54:12 -74.02, 175.21 114.08 09/01/2017 11:54:30 -74.01, 175.31 114.09 3.13 18




NCC Satellite Simultaneous Nadir Overpasses (SNOs) Prediction Service
